Time,TemperatureF,DewpointF,PressureIn,WindDirection,WindDirectionDegrees,WindSpeedMPH,WindSpeedGustMPH,Humidity,HourlyPrecipIn,Conditions,Clouds,dailyrainin,SoftwareType,DateUTC
2013-02-03 00:10:00,1.8,-1.4,29.91,WNW,292,0.0,-999.0,86,-99.99,,,0.00,Acu-Link.com,2013-02-03 05:10:00,
2013-02-03 00:25:00,1.8,-1.4,29.90,WNW,292,0.0,-999.0,86,-99.99,,,0.00,Acu-Link.com,2013-02-03 05:25:00,
2013-02-03 00:40:00,1.9,-1.1,29.90,West,270,0.0,-999.0,87,-99.99,,,0.00,Acu-Link.com,2013-02-03 05:40:00,
2013-02-03 00:55:00,2.3,-0.2,29.90,WNW,292,0.0,-999.0,89,-99.99,,,0.00,Acu-Link.com,2013-02-03 05:55:00,
2013-02-03 01:11:00,3.0,0.5,29.89,WNW,292,0.0,-999.0,89,-99.99,,,0.00,Acu-Link.com,2013-02-03 06:11:00,
2013-02-03 01:26:00,3.4,0.9,29.89,WNW,292,0.0,-999.0,89,-99.99,,,0.00,Acu-Link.com,2013-02-03 06:26:00,
2013-02-03 01:41:00,3.6,0.9,29.89,WNW,292,0.0,-999.0,88,-99.99,,,0.00,Acu-Link.com,2013-02-03 06:41:00,
2013-02-03 01:56:00,3.6,0.9,29.88,WNW,292,0.0,-999.0,88,-99.99,,,0.00,Acu-Link.com,2013-02-03 06:56:00,
2013-02-03 02:11:00,3.2,0.9,29.88,West,270,0.0,-999.0,90,-99.99,,,0.00,Acu-Link.com,2013-02-03 07:11:00,
2013-02-03 02:26:00,3.9,1.9,29.88,WSW,247,0.0,-999.0,91,-99.99,,,0.00,Acu-Link.com,2013-02-03 07:26:00,
2013-02-03 02:41:00,4.1,1.8,29.88,West,270,0.0,-999.0,90,-99.99,,,0.00,Acu-Link.com,2013-02-03 07:41:00,
2013-02-03 02:56:00,4.6,2.1,29.88,WNW,292,0.0,-999.0,89,-99.99,,,0.00,Acu-Link.com,2013-02-03 07:56:00,
2013-02-03 03:11:00,4.8,2.3,29.87,East,90,0.0,-999.0,89,-99.99,,,0.00,Acu-Link.com,2013-02-03 08:11:00,
2013-02-03 03:27:00,4.8,2.3,29.86,WNW,292,0.0,-999.0,89,-99.99,,,0.00,Acu-Link.com,2013-02-03 08:27:00,
2013-02-03 03:42:00,4.5,1.3,29.85,West,270,0.0,-999.0,86,-99.99,,,0.00,Acu-Link.com,2013-02-03 08:42:00,
2013-02-03 03:57:00,3.7,0.7,29.84,WNW,292,0.0,-999.0,87,-99.99,,,0.00,Acu-Link.com,2013-02-03 08:57:00,
2013-02-03 04:12:00,3.2,0.2,29.84,WNW,292,0.0,-999.0,87,-99.99,,,0.00,Acu-Link.com,2013-02-03 09:12:00,
2013-02-03 04:27:00,2.7,-0.5,29.84,WNW,292,0.0,-999.0,86,-99.99,,,0.00,Acu-Link.com,2013-02-03 09:27:00,
2013-02-03 04:42:00,1.9,-1.1,29.84,West,270,0.0,-999.0,87,-99.99,,,0.00,Acu-Link.com,2013-02-03 09:42:00,
2013-02-03 04:57:00,1.8,-1.2,29.83,West,270,0.0,-999.0,87,-99.99,,,0.00,Acu-Link.com,2013-02-03 09:57:00,
2013-02-03 05:12:00,1.6,-1.4,29.84,West,270,0.0,-999.0,87,-99.99,,,0.00,Acu-Link.com,2013-02-03 10:12:00,
2013-02-03 05:27:00,1.0,-1.9,29.83,West,270,0.0,-999.0,87,-99.99,,,0.00,Acu-Link.com,2013-02-03 10:27:00,
2013-02-03 05:42:00,1.4,-1.3,29.83,West,270,0.0,-999.0,88,-99.99,,,0.00,Acu-Link.com,2013-02-03 10:42:00,
2013-02-03 05:58:00,1.4,-1.6,29.83,West,270,0.0,-999.0,87,-99.99,,,0.00,Acu-Link.com,2013-02-03 10:58:00,
2013-02-03 06:13:00,1.0,-1.9,29.82,West,270,0.0,-999.0,87,-99.99,,,0.00,Acu-Link.com,2013-02-03 11:13:00,
2013-02-03 06:28:00,1.0,-1.5,29.82,WNW,292,0.0,-999.0,89,-99.99,,,0.00,Acu-Link.com,2013-02-03 11:28:00,
2013-02-03 06:43:00,1.6,-0.9,29.82,West,270,0.0,-999.0,89,-99.99,,,0.00,Acu-Link.com,2013-02-03 11:43:00,
2013-02-03 06:58:00,2.1,-0.1,29.83,WNW,292,0.0,-999.0,90,-99.99,,,0.00,Acu-Link.com,2013-02-03 11:58:00,
2013-02-03 07:13:00,2.8,0.8,29.82,West,270,0.0,-999.0,91,-99.99,,,0.00,Acu-Link.com,2013-02-03 12:13:00,
2013-02-03 07:28:00,3.7,1.7,29.82,West,270,0.0,-999.0,91,-99.99,,,0.00,Acu-Link.com,2013-02-03 12:28:00,
2013-02-03 07:43:00,5.0,3.0,29.81,WNW,292,0.0,-999.0,91,-99.99,,,0.00,Acu-Link.com,2013-02-03 12:43:00,
2013-02-03 07:58:00,5.4,3.1,29.81,WNW,292,0.0,-999.0,90,-99.99,,,0.00,Acu-Link.com,2013-02-03 12:58:00,
2013-02-03 08:14:00,6.3,4.0,29.80,ESE,112,0.0,-999.0,90,-99.99,,,0.00,Acu-Link.com,2013-02-03 13:14:00,
2013-02-03 08:29:00,7.0,4.0,29.80,ENE,67,0.0,-999.0,87,-99.99,,,0.00,Acu-Link.com,2013-02-03 13:29:00,
2013-02-03 08:44:00,8.2,5.4,29.80,NNW,337,0.0,-999.0,88,-99.99,,,0.00,Acu-Link.com,2013-02-03 13:44:00,
2013-02-03 08:59:00,9.1,5.8,29.80,WSW,247,0.0,-999.0,86,-99.99,,,0.00,Acu-Link.com,2013-02-03 13:59:00,
2013-02-03 09:14:00,10.8,7.2,29.80,NE,45,0.0,-999.0,85,-99.99,,,0.00,Acu-Link.com,2013-02-03 14:14:00,
2013-02-03 09:29:00,11.7,7.6,29.80,West,270,0.0,-999.0,83,-99.99,,,0.00,Acu-Link.com,2013-02-03 14:29:00,
2013-02-03 09:44:00,12.6,8.2,29.79,West,270,0.0,-999.0,82,-99.99,,,0.00,Acu-Link.com,2013-02-03 14:44:00,
2013-02-03 09:59:00,12.9,7.6,29.79,WSW,247,0.0,-999.0,79,-99.99,,,0.00,Acu-Link.com,2013-02-03 14:59:00,
2013-02-03 10:14:00,14.0,8.1,29.79,West,270,1.7,-999.0,77,-99.99,,,0.00,Acu-Link.com,2013-02-03 15:14:00,
2013-02-03 10:30:00,14.0,7.9,29.79,ESE,112,2.2,-999.0,76,-99.99,,,0.00,Acu-Link.com,2013-02-03 15:30:00,
2013-02-03 10:45:00,14.9,8.1,29.78,WNW,292,2.2,-999.0,74,-99.99,,,0.00,Acu-Link.com,2013-02-03 15:45:00,
2013-02-03 11:00:00,16.2,9.1,29.78,East,90,1.7,-999.0,73,-99.99,,,0.00,Acu-Link.com,2013-02-03 16:00:00,
2013-02-03 11:15:00,18.0,9.2,29.77,WSW,247,1.7,-999.0,68,-99.99,,,0.00,Acu-Link.com,2013-02-03 16:15:00,
2013-02-03 11:30:00,19.6,10.5,29.77,SW,225,2.7,-999.0,67,-99.99,,,0.00,Acu-Link.com,2013-02-03 16:30:00,
2013-02-03 11:45:00,20.1,10.6,29.76,East,90,2.7,-999.0,66,-99.99,,,0.00,Acu-Link.com,2013-02-03 16:45:00,
2013-02-03 12:00:00,20.3,11.1,29.76,SSE,157,1.7,-999.0,67,-99.99,,,0.00,Acu-Link.com,2013-02-03 17:00:00,
2013-02-03 12:15:00,21.0,12.1,29.75,West,270,2.2,-999.0,68,-99.99,,,0.00,Acu-Link.com,2013-02-03 17:15:00,
2013-02-03 12:30:00,22.3,13.0,29.74,South,180,0.0,-999.0,67,-99.99,,,0.00,Acu-Link.com,2013-02-03 17:30:00,
2013-02-03 12:46:00,22.5,13.9,29.73,ESE,112,2.2,-999.0,69,-99.99,,,0.00,Acu-Link.com,2013-02-03 17:46:00,
2013-02-03 13:01:00,22.6,14.0,29.73,ENE,67,1.7,-999.0,69,-99.99,,,0.00,Acu-Link.com,2013-02-03 18:01:00,
2013-02-03 13:16:00,22.8,14.5,29.73,ENE,67,1.7,-999.0,70,-99.99,,,0.00,Acu-Link.com,2013-02-03 18:16:00,
2013-02-03 13:31:00,23.5,15.2,29.73,South,180,1.1,-999.0,70,-99.99,,,0.00,Acu-Link.com,2013-02-03 18:31:00,
2013-02-03 13:46:00,23.2,15.2,29.73,West,270,1.1,-999.0,71,-99.99,,,0.00,Acu-Link.com,2013-02-03 18:46:00,
2013-02-03 14:01:00,22.1,13.8,29.73,SSW,202,1.7,-999.0,70,-99.99,,,0.00,Acu-Link.com,2013-02-03 19:01:00,
2013-02-03 14:16:00,22.3,14.7,29.72,West,270,0.0,-999.0,72,-99.99,,,0.00,Acu-Link.com,2013-02-03 19:16:00,
2013-02-03 14:31:00,23.0,16.3,29.72,South,180,0.0,-999.0,75,-99.99,,,0.00,Acu-Link.com,2013-02-03 19:31:00,
2013-02-03 14:46:00,21.9,15.5,29.72,SSW,202,1.1,-999.0,76,-99.99,,,0.00,Acu-Link.com,2013-02-03 19:46:00,
2013-02-03 15:02:00,21.6,14.6,29.72,SSW,202,2.2,-999.0,74,-99.99,,,0.00,Acu-Link.com,2013-02-03 20:02:00,
2013-02-03 15:17:00,21.2,13.6,29.74,NW,315,2.2,-999.0,72,-99.99,,,0.00,Acu-Link.com,2013-02-03 20:17:00,
2013-02-03 15:32:00,20.5,13.6,29.74,West,270,2.2,-999.0,74,-99.99,,,0.00,Acu-Link.com,2013-02-03 20:32:00,
2013-02-03 15:47:00,20.7,14.4,29.75,NNE,22,1.7,-999.0,76,-99.99,,,0.00,Acu-Link.com,2013-02-03 20:47:00,
2013-02-03 16:02:00,19.9,12.7,29.75,West,270,2.2,-999.0,73,-99.99,,,0.00,Acu-Link.com,2013-02-03 21:02:00,
2013-02-03 16:17:00,19.9,13.3,29.75,SSW,202,2.7,-999.0,75,-99.99,,,0.00,Acu-Link.com,2013-02-03 21:17:00,
2013-02-03 16:32:00,19.9,13.6,29.75,SSE,157,1.7,-999.0,76,-99.99,,,0.00,Acu-Link.com,2013-02-03 21:32:00,
2013-02-03 16:47:00,19.4,13.1,29.76,North,0,1.7,-999.0,76,-99.99,,,0.00,Acu-Link.com,2013-02-03 21:47:00,
2013-02-03 17:02:00,18.9,12.6,29.76,West,270,5.3,-999.0,76,-99.99,,,0.00,Acu-Link.com,2013-02-03 22:02:00,
2013-02-03 17:18:00,19.0,13.0,29.76,WSW,247,0.0,-999.0,77,-99.99,,,0.00,Acu-Link.com,2013-02-03 22:18:00,
2013-02-03 17:33:00,18.3,14.0,29.77,SW,225,2.2,-999.0,83,-99.99,,,0.00,Acu-Link.com,2013-02-03 22:33:00,
2013-02-03 17:48:00,18.3,13.2,29.77,ENE,67,2.7,-999.0,80,-99.99,,,0.00,Acu-Link.com,2013-02-03 22:48:00,
2013-02-03 18:03:00,18.0,13.5,29.78,ENE,67,2.2,-999.0,82,-99.99,,,0.00,Acu-Link.com,2013-02-03 23:03:00,
2013-02-03 18:18:00,16.9,13.5,29.78,NW,315,4.7,-999.0,86,-99.99,,,0.00,Acu-Link.com,2013-02-03 23:18:00,
2013-02-03 18:33:00,16.7,13.3,29.79,West,270,1.7,-999.0,86,-99.99,,,0.00,Acu-Link.com,2013-02-03 23:33:00,
2013-02-03 18:48:00,16.7,11.3,29.81,ENE,67,2.2,-999.0,79,-99.99,,,0.00,Acu-Link.com,2013-02-03 23:48:00,
2013-02-03 19:03:00,16.3,9.5,29.81,SSW,202,2.7,-999.0,74,-99.99,,,0.00,Acu-Link.com,2013-02-04 00:03:00,
2013-02-03 19:18:00,16.0,8.3,29.82,WSW,247,4.2,-999.0,71,-99.99,,,0.00,Acu-Link.com,2013-02-04 00:18:00,
2013-02-03 19:34:00,15.3,7.3,29.83,NNW,337,3.2,-999.0,70,-99.99,,,0.00,Acu-Link.com,2013-02-04 00:34:00,
2013-02-03 19:49:00,14.9,6.9,29.83,NNW,337,1.1,-999.0,70,-99.99,,,0.00,Acu-Link.com,2013-02-04 00:49:00,
2013-02-03 20:04:00,14.4,7.1,29.83,SSW,202,0.0,-999.0,72,-99.99,,,0.00,Acu-Link.com,2013-02-04 01:04:00,
2013-02-03 20:19:00,13.8,6.8,29.84,NNW,337,0.0,-999.0,73,-99.99,,,0.00,Acu-Link.com,2013-02-04 01:19:00,
2013-02-03 20:34:00,13.3,6.6,29.83,South,180,0.0,-999.0,74,-99.99,,,0.00,Acu-Link.com,2013-02-04 01:34:00,
2013-02-03 20:49:00,12.6,6.5,29.84,NW,315,0.0,-999.0,76,-99.99,,,0.00,Acu-Link.com,2013-02-04 01:49:00,
2013-02-03 21:04:00,12.0,6.5,29.86,SSW,202,0.0,-999.0,78,-99.99,,,0.00,Acu-Link.com,2013-02-04 02:04:00,
2013-02-03 21:19:00,11.5,6.3,29.85,South,180,0.0,-999.0,79,-99.99,,,0.00,Acu-Link.com,2013-02-04 02:19:00,
2013-02-03 21:34:00,11.1,6.2,29.86,ENE,67,0.0,-999.0,80,-99.99,,,0.00,Acu-Link.com,2013-02-04 02:34:00,
2013-02-03 21:49:00,10.8,6.1,29.87,SE,135,0.0,-999.0,81,-99.99,,,0.00,Acu-Link.com,2013-02-04 02:49:00,
2013-02-03 22:05:00,10.8,6.7,29.87,SW,225,0.0,-999.0,83,-99.99,,,0.00,Acu-Link.com,2013-02-04 03:05:00,
2013-02-03 22:42:00,10.8,6.7,29.88,South,180,0.0,-999.0,83,-99.99,,,0.00,Acu-Link.com,2013-02-04 03:42:00,
2013-02-03 22:58:00,11.1,7.7,29.88,East,90,0.0,-999.0,86,-99.99,,,0.00,Acu-Link.com,2013-02-04 03:58:00,
2013-02-03 23:13:00,11.5,8.4,29.88,SW,225,0.0,-999.0,87,-99.99,,,0.00,Acu-Link.com,2013-02-04 04:13:00,
2013-02-03 23:28:00,11.7,8.6,29.88,East,90,0.0,-999.0,87,-99.99,,,0.00,Acu-Link.com,2013-02-04 04:28:00,
2013-02-03 23:43:00,11.5,8.4,29.88,WSW,247,0.0,-999.0,87,-99.99,,,0.00,Acu-Link.com,2013-02-04 04:43:00,
2013-02-03 23:58:00,11.7,8.6,29.88,SW,225,0.0,-999.0,87,-99.99,,,0.00,Acu-Link.com,2013-02-04 04:58:00,